owner,sensor,date,latitude,longitude,vertical_datum,direction_of_sea_water_velocity,sea_water_speed,upward_sea_water_velocity,qcFlag 
TABS,ioos:station:wmo:42045:1,2011-03-01T00:00:00Z,26.2168,-96.4998,2.0,244.6886457,33.30750216,-99999.0,'11111222,11111222,99999999' 
TABS,ioos:station:wmo:42045:1,2011-03-01T00:30:00Z,26.2168,-96.4998,2.0,257.7825178,33.6930527,-99999.0,'11111222,11111222,99999999' 
TABS,ioos:station:wmo:42045:1,2011-03-01T01:00:00Z,26.2168,-96.4998,2.0,266.2822549,32.69879661,-99999.0,'11111222,11111222,99999999' 
TABS,ioos:station:wmo:42045:1,2011-03-01T01:30:00Z,26.2168,-96.4998,2.0,267.9007632,35.22362985,-99999.0,'11111222,11111222,99999999' 
TABS,ioos:station:wmo:42045:1,2011-03-01T02:00:00Z,26.2168,-96.4998,2.0,280.8117873,35.61211592,-99999.0,'11111222,11111222,99999999' 
TABS,ioos:station:wmo:42045:1,2011-03-01T02:30:00Z,26.2168,-96.4998,2.0,283.4685818,31.55786114,-99999.0,'11111222,11111222,99999999' 
TABS,ioos:station:wmo:42045:1,2011-03-01T03:00:00Z,26.2168,-96.4998,2.0,296.3058618,31.59149253,-99999.0,'11111222,11111222,99999999' 
TABS,ioos:station:wmo:42045:1,2011-03-01T03:30:00Z,26.2168,-96.4998,2.0,311.2968156,31.19906569,-99999.0,'11111222,11111222,99999999' 
TABS,ioos:station:wmo:42045:1,2011-03-01T04:00:00Z,26.2168,-96.4998,2.0,323.860173,32.50463659,-99999.0,'11111222,11111222,99999999' 
TABS,ioos:station:wmo:42045:1,2011-03-01T04:30:00Z,26.2168,-96.4998,2.0,319.7721356,24.65033063,-99999.0,'11111222,11111222,99999999' 
TABS,ioos:station:wmo:42045:1,2011-03-01T05:00:00Z,26.2168,-96.4998,2.0,324.4836285,22.1881883,-99999.0,'11111222,11111222,99999999' 
TABS,ioos:station:wmo:42045:1,2011-03-01T05:30:00Z,26.2168,-96.4998,2.0,327.6645445,16.54578194,-99999.0,'11111222,11111222,99999999' 
TABS,ioos:station:wmo:42045:1,2011-03-01T06:00:00Z,26.2168,-96.4998,2.0,319.9839133,13.91898344,-99999.0,'11111222,11111222,99999999' 
TABS,ioos:station:wmo:42045:1,2011-03-01T06:30:00Z,26.2168,-96.4998,2.0,330.9494485,14.74509071,-99999.0,'11111222,11111222,99999999' 
TABS,ioos:station:wmo:42045:1,2011-03-01T07:00:00Z,26.2168,-96.4998,2.0,302.5921219,9.839415633,-99999.0,'11133222,11111222,99999999' 
TABS,ioos:station:wmo:42045:1,2011-03-01T07:30:00Z,26.2168,-96.4998,2.0,346.2542856,7.659373343,-99999.0,'11133222,11111222,99999999' 
TABS,ioos:station:wmo:42045:1,2011-03-01T08:00:00Z,26.2168,-96.4998,2.0,295.2303718,2.111421322,-99999.0,'11133222,11111222,99999999' 
TABS,ioos:station:wmo:42045:1,2011-03-01T08:30:00Z,26.2168,-96.4998,2.0,15.87301236,6.508148738,-99999.0,'11133222,11111222,99999999' 
TABS,ioos:station:wmo:42045:1,2011-03-01T09:00:00Z,26.2168,-96.4998,2.0,63.86757109,6.516087783,-99999.0,'11133222,11111222,99999999' 
TABS,ioos:station:wmo:42045:1,2011-03-01T09:30:00Z,26.2168,-96.4998,2.0,40.11171571,10.78726101,-99999.0,'11111222,11111222,99999999' 
TABS,ioos:station:wmo:42045:1,2011-03-01T10:00:00Z,26.2168,-96.4998,2.0,71.16891734,9.604066847,-99999.0,'11133222,11111222,99999999' 
TABS,ioos:station:wmo:42045:1,2011-03-01T10:30:00Z,26.2168,-96.4998,2.0,81.00077,8.950173183,-99999.0,'11133222,11111222,99999999' 
TABS,ioos:station:wmo:42045:1,2011-03-01T11:00:00Z,26.2168,-96.4998,2.0,99.07652476,6.592548824,-99999.0,'11133222,11111222,99999999' 
TABS,ioos:station:wmo:42045:1,2011-03-01T11:30:00Z,26.2168,-96.4998,2.0,83.73652403,6.599393912,-99999.0,'11133222,11111222,99999999' 
TABS,ioos:station:wmo:42045:1,2011-03-01T12:00:00Z,26.2168,-96.4998,2.0,60.45505598,5.333526038,-99999.0,'11133222,11111222,99999999' 
TABS,ioos:station:wmo:42045:1,2011-03-01T12:30:00Z,26.2168,-96.4998,2.0,65.057519,8.844959016,-99999.0,'11133222,11111222,99999999' 
TABS,ioos:station:wmo:42045:1,2011-03-01T13:00:00Z,26.2168,-96.4998,2.0,60.56093508,7.670417199,-99999.0,'11133222,11111222,99999999' 
TABS,ioos:station:wmo:42045:1,2011-03-01T13:30:00Z,26.2168,-96.4998,2.0,48.43956795,11.07910646,-99999.0,'11111222,11111222,99999999' 
TABS,ioos:station:wmo:42045:1,2011-03-01T14:00:00Z,26.2168,-96.4998,2.0,74.81661331,9.812532802,-99999.0,'11133222,11111222,99999999' 
TABS,ioos:station:wmo:42045:1,2011-03-01T14:30:00Z,26.2168,-96.4998,2.0,83.73943717,7.152656849,-99999.0,'11133222,11111222,99999999' 
TABS,ioos:station:wmo:42045:1,2011-03-01T15:00:00Z,26.2168,-96.4998,2.0,67.64917961,10.65011737,-99999.0,'11111222,11111222,99999999' 
TABS,ioos:station:wmo:42045:1,2011-03-01T15:30:00Z,26.2168,-96.4998,2.0,82.97807641,9.652398666,-99999.0,'11133222,11111222,99999999' 
TABS,ioos:station:wmo:42045:1,2011-03-01T16:00:00Z,26.2168,-96.4998,2.0,77.9885497,7.688328817,-99999.0,'11133222,11111222,99999999' 
TABS,ioos:station:wmo:42045:1,2011-03-01T16:30:00Z,26.2168,-96.4998,2.0,87.80743633,10.97803717,-99999.0,'11111222,11111222,99999999' 
TABS,ioos:station:wmo:42045:1,2011-03-01T17:00:00Z,26.2168,-96.4998,2.0,110.3093669,8.700919492,-99999.0,'11133222,11111222,99999999' 
TABS,ioos:station:wmo:42045:1,2011-03-01T17:30:00Z,26.2168,-96.4998,2.0,108.2588828,8.234609888,-99999.0,'11133222,11111222,99999999' 
TABS,ioos:station:wmo:42045:1,2011-03-01T18:00:00Z,26.2168,-96.4998,2.0,108.5813346,8.661506797,-99999.0,'11133222,11111222,99999999' 
TABS,ioos:station:wmo:42045:1,2011-03-01T18:30:00Z,26.2168,-96.4998,2.0,112.7703257,7.027716557,-99999.0,'11133222,11111222,99999999' 
TABS,ioos:station:wmo:42045:1,2011-03-01T19:00:00Z,26.2168,-96.4998,2.0,133.98008,6.753939591,-99999.0,'11133222,11111222,99999999' 
TABS,ioos:station:wmo:42045:1,2011-03-01T19:30:00Z,26.2168,-96.4998,2.0,129.686314,9.849898477,-99999.0,'11133222,11111222,99999999' 
TABS,ioos:station:wmo:42045:1,2011-03-01T20:00:00Z,26.2168,-96.4998,2.0,133.1776901,8.227812589,-99999.0,'11133222,11111222,99999999' 
TABS,ioos:station:wmo:42045:1,2011-03-01T20:30:00Z,26.2168,-96.4998,2.0,119.0613971,8.111208295,-99999.0,'11133222,11111222,99999999' 
TABS,ioos:station:wmo:42045:1,2011-03-01T21:00:00Z,26.2168,-96.4998,2.0,141.3518367,7.605662364,-99999.0,'11133222,11111222,99999999' 
TABS,ioos:station:wmo:42045:1,2011-03-01T21:30:00Z,26.2168,-96.4998,2.0,106.797015,7.855144811,-99999.0,'11133222,11111222,99999999' 
TABS,ioos:station:wmo:42045:1,2011-03-01T22:00:00Z,26.2168,-96.4998,2.0,113.6931125,10.80035648,-99999.0,'11111222,11111222,99999999' 
TABS,ioos:station:wmo:42045:1,2011-03-01T22:30:00Z,26.2168,-96.4998,2.0,144.1586568,7.241167033,-99999.0,'11133222,11111222,99999999' 
TABS,ioos:station:wmo:42045:1,2011-03-01T23:00:00Z,26.2168,-96.4998,2.0,147.7553728,7.365989411,-99999.0,'11133222,11111222,99999999' 
TABS,ioos:station:wmo:42045:1,2011-03-01T23:30:00Z,26.2168,-96.4998,2.0,126.2168,6.668433099,-99999.0,'11133222,11111222,99999999' 
TABS,ioos:station:wmo:42045:1,2011-03-02T00:00:00Z,26.2168,-96.4998,2.0,146.6409858,6.237707912,-99999.0,'11133222,11111222,99999999' 
TABS,ioos:station:wmo:42045:1,2011-03-02T00:30:00Z,26.2168,-96.4998,2.0,147.1713245,7.378346698,-99999.0,'11133222,11111222,99999999' 
TABS,ioos:station:wmo:42045:1,2011-03-02T01:00:00Z,26.2168,-96.4998,2.0,158.9131996,6.698552082,-99999.0,'11133222,11111222,99999999' 
TABS,ioos:station:wmo:42045:1,2011-03-02T01:30:00Z,26.2168,-96.4998,2.0,174.0044168,2.202044505,-99999.0,'11133222,11111222,99999999' 
TABS,ioos:station:wmo:42045:1,2011-03-02T02:00:00Z,26.2168,-96.4998,2.0,192.7190909,3.588049609,-99999.0,'11133222,11111222,99999999' 
TABS,ioos:station:wmo:42045:1,2011-03-02T02:30:00Z,26.2168,-96.4998,2.0,193.8426958,3.59439842,-99999.0,'11133222,11111222,99999999' 
TABS,ioos:station:wmo:42045:1,2011-03-02T03:00:00Z,26.2168,-96.4998,2.0,167.5226521,2.406844407,-99999.0,'11133222,11111222,99999999' 
TABS,ioos:station:wmo:42045:1,2011-03-02T03:30:00Z,26.2168,-96.4998,2.0,243.7882624,2.89799931,-99999.0,'11133222,11111222,99999999' 
TABS,ioos:station:wmo:42045:1,2011-03-02T04:00:00Z,26.2168,-96.4998,2.0,232.334046,3.600347205,-99999.0,'11133222,11111222,99999999' 
TABS,ioos:station:wmo:42045:1,2011-03-02T04:30:00Z,26.2168,-96.4998,2.0,273.3923952,6.591547618,-99999.0,'11133222,11111222,99999999' 
TABS,ioos:station:wmo:42045:1,2011-03-02T05:00:00Z,26.2168,-96.4998,2.0,240.7955764,2.233965085,-99999.0,'11133222,11111222,99999999' 
TABS,ioos:station:wmo:42045:1,2011-03-02T05:30:00Z,26.2168,-96.4998,2.0,336.8016742,4.493306132,-99999.0,'11133222,11111222,99999999' 
TABS,ioos:station:wmo:42045:1,2011-03-02T06:00:00Z,26.2168,-96.4998,2.0,281.0413353,4.177319715,-99999.0,'11133222,11111222,99999999' 
TABS,ioos:station:wmo:42045:1,2011-03-02T06:30:00Z,26.2168,-96.4998,2.0,320.8662731,4.151240778,-99999.0,'11133222,11111222,99999999' 
TABS,ioos:station:wmo:42045:1,2011-03-02T07:00:00Z,26.2168,-96.4998,2.0,9.181946487,4.700223399,-99999.0,'11133222,11111222,99999999' 
TABS,ioos:station:wmo:42045:1,2011-03-02T07:30:00Z,26.2168,-96.4998,2.0,357.5745025,7.796986597,-99999.0,'11133222,11111222,99999999' 
TABS,ioos:station:wmo:42045:1,2011-03-02T08:00:00Z,26.2168,-96.4998,2.0,15.24902962,8.022449751,-99999.0,'11133222,11111222,99999999' 
TABS,ioos:station:wmo:42045:1,2011-03-02T08:30:00Z,26.2168,-96.4998,2.0,23.8388949,11.2825529,-99999.0,'11111222,11111222,99999999' 
TABS,ioos:station:wmo:42045:1,2011-03-02T09:00:00Z,26.2168,-96.4998,2.0,35.46103568,10.41114787,-99999.0,'11111222,11111222,99999999' 
TABS,ioos:station:wmo:42045:1,2011-03-02T09:30:00Z,26.2168,-96.4998,2.0,6.166337783,15.26833324,-99999.0,'11111222,11111222,99999999' 
TABS,ioos:station:wmo:42045:1,2011-03-02T10:00:00Z,26.2168,-96.4998,2.0,19.10506504,14.6043966,-99999.0,'11111222,11111222,99999999' 
TABS,ioos:station:wmo:42045:1,2011-03-02T10:30:00Z,26.2168,-96.4998,2.0,29.05001418,11.75935798,-99999.0,'11111222,11111222,99999999' 
TABS,ioos:station:wmo:42045:1,2011-03-02T11:00:00Z,26.2168,-96.4998,2.0,50.48488757,13.39026885,-99999.0,'11111222,11111222,99999999' 
TABS,ioos:station:wmo:42045:1,2011-03-02T11:30:00Z,26.2168,-96.4998,2.0,54.31838175,18.03587813,-99999.0,'11111222,11111222,99999999' 
TABS,ioos:station:wmo:42045:1,2011-03-02T12:00:00Z,26.2168,-96.4998,2.0,51.2623937,20.67898692,-99999.0,'11111222,11111222,99999999' 
TABS,ioos:station:wmo:42045:1,2011-03-02T12:30:00Z,26.2168,-96.4998,2.0,61.36705958,22.30812632,-99999.0,'11111222,11111222,99999999' 
TABS,ioos:station:wmo:42045:1,2011-03-02T13:00:00Z,26.2168,-96.4998,2.0,63.29744663,18.62649994,-99999.0,'11111222,11111222,99999999' 
TABS,ioos:station:wmo:42045:1,2011-03-02T13:30:00Z,26.2168,-96.4998,2.0,68.48906215,21.98103956,-99999.0,'11111222,11111222,99999999' 
TABS,ioos:station:wmo:42045:1,2011-03-02T14:00:00Z,26.2168,-96.4998,2.0,70.0191041,22.62168208,-99999.0,'11111222,11111222,99999999' 
TABS,ioos:station:wmo:42045:1,2011-03-02T14:30:00Z,26.2168,-96.4998,2.0,75.48897443,21.07221868,-99999.0,'11111222,11111222,99999999' 
TABS,ioos:station:wmo:42045:1,2011-03-02T15:00:00Z,26.2168,-96.4998,2.0,78.77994593,22.51023767,-99999.0,'11111222,11111222,99999999' 
TABS,ioos:station:wmo:42045:1,2011-03-02T15:30:00Z,26.2168,-96.4998,2.0,80.45039899,21.57903612,-99999.0,'11111222,11111222,99999999' 
TABS,ioos:station:wmo:42045:1,2011-03-02T16:00:00Z,26.2168,-96.4998,2.0,75.97119285,18.76983218,-99999.0,'11111222,11111222,99999999' 
TABS,ioos:station:wmo:42045:1,2011-03-02T16:30:00Z,26.2168,-96.4998,2.0,68.11933961,16.09980124,-99999.0,'11111222,11111222,99999999' 
TABS,ioos:station:wmo:42045:1,2011-03-02T17:00:00Z,26.2168,-96.4998,2.0,72.47096614,16.40162187,-99999.0,'11111222,11111222,99999999' 
TABS,ioos:station:wmo:42045:1,2011-03-02T17:30:00Z,26.2168,-96.4998,2.0,81.58882826,17.29604001,-99999.0,'11111222,11111222,99999999' 
TABS,ioos:station:wmo:42045:1,2011-03-02T18:00:00Z,26.2168,-96.4998,2.0,84.9446983,13.05076626,-99999.0,'11111222,11111222,99999999' 
TABS,ioos:station:wmo:42045:1,2011-03-02T18:30:00Z,26.2168,-96.4998,2.0,73.32093671,13.6231641,-99999.0,'11111222,11111222,99999999' 
TABS,ioos:station:wmo:42045:1,2011-03-02T19:00:00Z,26.2168,-96.4998,2.0,78.3304725,7.811459531,-99999.0,'11133222,11111222,99999999' 
TABS,ioos:station:wmo:42045:1,2011-03-02T19:30:00Z,26.2168,-96.4998,2.0,82.33321367,14.16664039,-99999.0,'11111222,11111222,99999999' 
TABS,ioos:station:wmo:42045:1,2011-03-02T20:00:00Z,26.2168,-96.4998,2.0,100.3111485,8.100827118,-99999.0,'11133222,11111222,99999999' 
TABS,ioos:station:wmo:42045:1,2011-03-02T20:30:00Z,26.2168,-96.4998,2.0,111.5814991,4.839256141,-99999.0,'11133222,11111222,99999999' 
TABS,ioos:station:wmo:42045:1,2011-03-02T21:00:00Z,26.2168,-96.4998,2.0,121.8064317,6.413025807,-99999.0,'11133222,11111222,99999999' 
TABS,ioos:station:wmo:42045:1,2011-03-02T21:30:00Z,26.2168,-96.4998,2.0,100.191478,8.138408935,-99999.0,'11133222,11111222,99999999' 
TABS,ioos:station:wmo:42045:1,2011-03-02T22:00:00Z,26.2168,-96.4998,2.0,107.5409485,9.323529375,-99999.0,'11133222,11111222,99999999' 
TABS,ioos:station:wmo:42045:1,2011-03-02T22:30:00Z,26.2168,-96.4998,2.0,124.059792,6.445750538,-99999.0,'11133222,11111222,99999999' 
TABS,ioos:station:wmo:42045:1,2011-03-02T23:00:00Z,26.2168,-96.4998,2.0,107.8842817,6.252111643,-99999.0,'11133222,11111222,99999999' 
TABS,ioos:station:wmo:42045:1,2011-03-02T23:30:00Z,26.2168,-96.4998,2.0,130.0236422,5.380148697,-99999.0,'11133222,11111222,99999999' 
TABS,ioos:station:wmo:42045:1,2011-03-03T00:00:00Z,26.2168,-96.4998,2.0,146.7466371,6.911765332,-99999.0,'11133222,11111222,99999999' 
TABS,ioos:station:wmo:42045:1,2011-03-03T00:30:00Z,26.2168,-96.4998,2.0,144.933969,2.54125953,-99999.0,'11133222,11111222,99999999' 
TABS,ioos:station:wmo:42045:1,2011-03-03T01:00:00Z,26.2168,-96.4998,2.0,203.5672377,2.651131834,-99999.0,'11133222,11111222,99999999' 
TABS,ioos:station:wmo:42045:1,2011-03-03T01:30:00Z,26.2168,-96.4998,2.0,287.7789404,3.864556896,-99999.0,'11133222,11111222,99999999' 
TABS,ioos:station:wmo:42045:1,2011-03-03T02:00:00Z,26.2168,-96.4998,2.0,48.17992791,0.254950976,-99999.0,'11133222,11111222,99999999' 
TABS,ioos:station:wmo:42045:1,2011-03-03T02:30:00Z,26.2168,-96.4998,2.0,51.48316376,1.878776197,-99999.0,'11133222,11111222,99999999' 
TABS,ioos:station:wmo:42045:1,2011-03-03T03:00:00Z,26.2168,-96.4998,2.0,235.5097031,1.589370945,-99999.0,'11133222,11111222,99999999' 
TABS,ioos:station:wmo:42045:1,2011-03-03T03:30:00Z,26.2168,-96.4998,2.0,193.6710647,0.761577311,-99999.0,'11133222,11111222,99999999' 
TABS,ioos:station:wmo:42045:1,2011-03-03T04:00:00Z,26.2168,-96.4998,2.0,343.6444316,3.83520534,-99999.0,'11133222,11111222,99999999' 
TABS,ioos:station:wmo:42045:1,2011-03-03T04:30:00Z,26.2168,-96.4998,2.0,58.46985196,2.428538655,-99999.0,'11133222,11111222,99999999' 
TABS,ioos:station:wmo:42045:1,2011-03-03T05:00:00Z,26.2168,-96.4998,2.0,52.40550551,2.688215021,-99999.0,'11133222,11111222,99999999' 
TABS,ioos:station:wmo:42045:1,2011-03-03T05:30:00Z,26.2168,-96.4998,2.0,349.7120293,3.079512949,-99999.0,'11133222,11111222,99999999' 
TABS,ioos:station:wmo:42045:1,2011-03-03T06:00:00Z,26.2168,-96.4998,2.0,350.2850309,5.214786669,-99999.0,'11133222,11111222,99999999' 
TABS,ioos:station:wmo:42045:1,2011-03-03T06:30:00Z,26.2168,-96.4998,2.0,321.1272344,2.51753848,-99999.0,'11133222,11111222,99999999' 
TABS,ioos:station:wmo:42045:1,2011-03-03T07:00:00Z,26.2168,-96.4998,2.0,44.84398669,2.595091521,-99999.0,'11133222,11111222,99999999' 
TABS,ioos:station:wmo:42045:1,2011-03-03T07:30:00Z,26.2168,-96.4998,2.0,336.2976199,1.791089054,-99999.0,'11133222,11111222,99999999' 
TABS,ioos:station:wmo:42045:1,2011-03-03T08:00:00Z,26.2168,-96.4998,2.0,50.86396353,3.94508555,-99999.0,'11133222,11111222,99999999' 
TABS,ioos:station:wmo:42045:1,2011-03-03T08:30:00Z,26.2168,-96.4998,2.0,32.14704751,7.724228117,-99999.0,'11133222,11111222,99999999' 
TABS,ioos:station:wmo:42045:1,2011-03-03T09:00:00Z,26.2168,-96.4998,2.0,23.0323761,5.878613782,-99999.0,'11133222,11111222,99999999' 
TABS,ioos:station:wmo:42045:1,2011-03-03T09:30:00Z,26.2168,-96.4998,2.0,40.02559391,7.339128014,-99999.0,'11133222,11111222,99999999' 
TABS,ioos:station:wmo:42045:1,2011-03-03T10:00:00Z,26.2168,-96.4998,2.0,51.47178675,8.845705173,-99999.0,'11133222,11111222,99999999' 
TABS,ioos:station:wmo:42045:1,2011-03-03T10:30:00Z,26.2168,-96.4998,2.0,65.83866411,10.23678172,-99999.0,'11111222,11111222,99999999' 
TABS,ioos:station:wmo:42045:1,2011-03-03T11:00:00Z,26.2168,-96.4998,2.0,51.95304644,8.469787483,-99999.0,'11133222,11111222,99999999' 
TABS,ioos:station:wmo:42045:1,2011-03-03T11:30:00Z,26.2168,-96.4998,2.0,46.75883803,8.524652486,-99999.0,'11133222,11111222,99999999' 
TABS,ioos:station:wmo:42045:1,2011-03-03T12:00:00Z,26.2168,-96.4998,2.0,61.19198572,9.255468654,-99999.0,'11133222,11111222,99999999' 
TABS,ioos:station:wmo:42045:1,2011-03-03T12:30:00Z,26.2168,-96.4998,2.0,61.95257463,13.48353069,-99999.0,'11111222,11111222,99999999' 
TABS,ioos:station:wmo:42045:1,2011-03-03T13:00:00Z,26.2168,-96.4998,2.0,82.65084983,11.41376362,-99999.0,'11111222,11111222,99999999' 
TABS,ioos:station:wmo:42045:1,2011-03-03T13:30:00Z,26.2168,-96.4998,2.0,72.62382553,7.7014609,-99999.0,'11133222,11111222,99999999' 
TABS,ioos:station:wmo:42045:1,2011-03-03T14:00:00Z,26.2168,-96.4998,2.0,83.90528207,14.69304938,-99999.0,'11111222,11111222,99999999' 
TABS,ioos:station:wmo:42045:1,2011-03-03T14:30:00Z,26.2168,-96.4998,2.0,91.83323132,11.56591976,-99999.0,'11111222,11111222,99999999' 
TABS,ioos:station:wmo:42045:1,2011-03-03T15:00:00Z,26.2168,-96.4998,2.0,90.26975152,10.6201177,-99999.0,'11111222,11111222,99999999' 
TABS,ioos:station:wmo:42045:1,2011-03-03T15:30:00Z,26.2168,-96.4998,2.0,103.0918624,9.712445624,-99999.0,'11133222,11111222,99999999' 
TABS,ioos:station:wmo:42045:1,2011-03-03T16:00:00Z,26.2168,-96.4998,2.0,93.8947914,13.69162153,-99999.0,'11111222,11111222,99999999' 
TABS,ioos:station:wmo:42045:1,2011-03-03T16:30:00Z,26.2168,-96.4998,2.0,105.5009856,13.28316604,-99999.0,'11111222,11111222,99999999' 
TABS,ioos:station:wmo:42045:1,2011-03-03T17:00:00Z,26.2168,-96.4998,2.0,108.1149493,15.85590742,-99999.0,'11111222,11111222,99999999' 
TABS,ioos:station:wmo:42045:1,2011-03-03T17:30:00Z,26.2168,-96.4998,2.0,106.7167838,15.6096957,-99999.0,'11111222,11111222,99999999' 
TABS,ioos:station:wmo:42045:1,2011-03-03T18:00:00Z,26.2168,-96.4998,2.0,119.8069852,12.57340845,-99999.0,'11111222,11111222,99999999' 
TABS,ioos:station:wmo:42045:1,2011-03-03T18:30:00Z,26.2168,-96.4998,2.0,118.7565982,13.44860588,-99999.0,'11111222,11111222,99999999' 
TABS,ioos:station:wmo:42045:1,2011-03-03T19:00:00Z,26.2168,-96.4998,2.0,101.4936189,9.78624545,-99999.0,'11133222,11111222,99999999' 
TABS,ioos:station:wmo:42045:1,2011-03-03T19:30:00Z,26.2168,-96.4998,2.0,132.1734599,7.313309784,-99999.0,'11133222,11111222,99999999' 
TABS,ioos:station:wmo:42045:1,2011-03-03T20:00:00Z,26.2168,-96.4998,2.0,123.1033644,10.56481898,-99999.0,'11111222,11111222,99999999' 
TABS,ioos:station:wmo:42045:1,2011-03-03T20:30:00Z,26.2168,-96.4998,2.0,139.4942419,9.745614398,-99999.0,'11133222,11111222,99999999' 
TABS,ioos:station:wmo:42045:1,2011-03-03T21:00:00Z,26.2168,-96.4998,2.0,150.1924536,9.092991807,-99999.0,'11133222,11111222,99999999' 
TABS,ioos:station:wmo:42045:1,2011-03-03T21:30:00Z,26.2168,-96.4998,2.0,130.0513384,7.459497302,-99999.0,'11133222,11111222,99999999' 
TABS,ioos:station:wmo:42045:1,2011-03-03T22:00:00Z,26.2168,-96.4998,2.0,144.2810124,4.778964323,-99999.0,'11133222,11111222,99999999' 
TABS,ioos:station:wmo:42045:1,2011-03-03T22:30:00Z,26.2168,-96.4998,2.0,152.3026229,5.658356652,-99999.0,'11133222,11111222,99999999' 
TABS,ioos:station:wmo:42045:1,2011-03-03T23:00:00Z,26.2168,-96.4998,2.0,141.1866472,5.249018956,-99999.0,'11133222,11111222,99999999' 
TABS,ioos:station:wmo:42045:1,2011-03-03T23:30:00Z,26.2168,-96.4998,2.0,179.5544956,3.860116579,-99999.0,'11133222,11111222,99999999' 
TABS,ioos:station:wmo:42045:1,2011-03-04T00:00:00Z,26.2168,-96.4998,2.0,230.7858919,5.330459642,-99999.0,'11133222,11111222,99999999' 
TABS,ioos:station:wmo:42045:1,2011-03-04T00:30:00Z,26.2168,-96.4998,2.0,216.7924871,2.972002692,-99999.0,'11133222,11111222,99999999' 
TABS,ioos:station:wmo:42045:1,2011-03-04T01:00:00Z,26.2168,-96.4998,2.0,195.1172996,6.940180113,-99999.0,'11133222,11111222,99999999' 
TABS,ioos:station:wmo:42045:1,2011-03-04T01:30:00Z,26.2168,-96.4998,2.0,223.2547937,5.341132839,-99999.0,'11133222,11111222,99999999' 
TABS,ioos:station:wmo:42045:1,2011-03-04T02:00:00Z,26.2168,-96.4998,2.0,239.9255716,4.749368379,-99999.0,'11133222,11111222,99999999' 
TABS,ioos:station:wmo:42045:1,2011-03-04T02:30:00Z,26.2168,-96.4998,2.0,224.5520712,5.430745805,-99999.0,'11133222,11111222,99999999' 
TABS,ioos:station:wmo:42045:1,2011-03-04T03:00:00Z,26.2168,-96.4998,2.0,264.0698442,4.162271015,-99999.0,'11133222,11111222,99999999' 
TABS,ioos:station:wmo:42045:1,2011-03-04T03:30:00Z,26.2168,-96.4998,2.0,247.8901824,3.453983208,-99999.0,'11133222,11111222,99999999' 
TABS,ioos:station:wmo:42045:1,2011-03-04T04:00:00Z,26.2168,-96.4998,2.0,260.3860237,3.11372767,-99999.0,'11133222,11111222,99999999' 
TABS,ioos:station:wmo:42045:1,2011-03-04T04:30:00Z,26.2168,-96.4998,2.0,276.6490506,3.282072516,-99999.0,'11133222,11111222,99999999' 
TABS,ioos:station:wmo:42045:1,2011-03-04T05:00:00Z,26.2168,-96.4998,2.0,256.5038774,3.342289634,-99999.0,'11133222,11111222,99999999' 
TABS,ioos:station:wmo:42045:1,2011-03-04T05:30:00Z,26.2168,-96.4998,2.0,20.98505922,2.345570293,-99999.0,'11133222,11111222,99999999' 
TABS,ioos:station:wmo:42045:1,2011-03-04T06:00:00Z,26.2168,-96.4998,2.0,235.5157061,1.201041215,-99999.0,'11133222,11111222,99999999' 
TABS,ioos:station:wmo:42045:1,2011-03-04T06:30:00Z,26.2168,-96.4998,2.0,277.989729,3.453519943,-99999.0,'11133222,11111222,99999999' 
TABS,ioos:station:wmo:42045:1,2011-03-04T07:00:00Z,26.2168,-96.4998,2.0,232.471226,2.610172408,-99999.0,'11133222,11111222,99999999' 
TABS,ioos:station:wmo:42045:1,2011-03-04T07:30:00Z,26.2168,-96.4998,2.0,213.1865672,2.210565538,-99999.0,'11133222,11111222,99999999' 
TABS,ioos:station:wmo:42045:1,2011-03-04T08:00:00Z,26.2168,-96.4998,2.0,235.0407086,4.258368232,-99999.0,'11133222,11111222,99999999' 
TABS,ioos:station:wmo:42045:1,2011-03-04T08:30:00Z,26.2168,-96.4998,2.0,311.2573361,2.27466481,-99999.0,'11133222,11111222,99999999' 
TABS,ioos:station:wmo:42045:1,2011-03-04T09:00:00Z,26.2168,-96.4998,2.0,242.0338174,3.475888376,-99999.0,'11133222,11111222,99999999' 
TABS,ioos:station:wmo:42045:1,2011-03-04T09:30:00Z,26.2168,-96.4998,2.0,310.2868125,6.711929678,-99999.0,'11133222,11111222,99999999' 
TABS,ioos:station:wmo:42045:1,2011-03-04T10:00:00Z,26.2168,-96.4998,2.0,233.1297677,5.4,-99999.0,'11133222,11111222,99999999' 
TABS,ioos:station:wmo:42045:1,2011-03-04T10:30:00Z,26.2168,-96.4998,2.0,266.0717119,5.693373341,-99999.0,'11133222,11111222,99999999' 
TABS,ioos:station:wmo:42045:1,2011-03-04T11:00:00Z,26.2168,-96.4998,2.0,278.8123549,4.634706032,-99999.0,'11133222,11111222,99999999' 
TABS,ioos:station:wmo:42045:1,2011-03-04T11:30:00Z,26.2168,-96.4998,2.0,293.7823957,5.157984102,-99999.0,'11133222,11111222,99999999' 
TABS,ioos:station:wmo:42045:1,2011-03-04T12:00:00Z,26.2168,-96.4998,2.0,325.5751789,3.891542111,-99999.0,'11133222,11111222,99999999' 
TABS,ioos:station:wmo:42045:1,2011-03-04T12:30:00Z,26.2168,-96.4998,2.0,298.1081282,3.82058896,-99999.0,'11133222,11111222,99999999' 
TABS,ioos:station:wmo:42045:1,2011-03-04T13:00:00Z,26.2168,-96.4998,2.0,1.610911375,5.692249116,-99999.0,'11133222,11111222,99999999' 
TABS,ioos:station:wmo:42045:1,2011-03-04T13:30:00Z,26.2168,-96.4998,2.0,342.2122795,5.040991966,-99999.0,'11133222,11111222,99999999' 
TABS,ioos:station:wmo:42045:1,2011-03-04T14:00:00Z,26.2168,-96.4998,2.0,19.81604051,3.805325216,-99999.0,'11133222,11111222,99999999' 
TABS,ioos:station:wmo:42045:1,2011-03-04T14:30:00Z,26.2168,-96.4998,2.0,22.44460834,6.783877947,-99999.0,'11133222,11111222,99999999' 
TABS,ioos:station:wmo:42045:1,2011-03-04T15:00:00Z,26.2168,-96.4998,2.0,41.53188408,6.078108258,-99999.0,'11133222,11111222,99999999' 
TABS,ioos:station:wmo:42045:1,2011-03-04T15:30:00Z,26.2168,-96.4998,2.0,31.26686521,11.67578691,-99999.0,'11111222,11111222,99999999' 
TABS,ioos:station:wmo:42045:1,2011-03-04T16:00:00Z,26.2168,-96.4998,2.0,35.43517087,10.38325575,-99999.0,'11111222,11111222,99999999' 